Year,Month,Day,Hour,Minute,Value (Times are PST for barometer in hPa)
2017,01,18,00,00,988.93
2017,01,18,00,01,988.93
2017,01,18,00,02,988.93
2017,01,18,00,03,988.93
2017,01,18,00,04,988.89
2017,01,18,00,05,988.83
2017,01,18,00,06,988.86
2017,01,18,00,07,988.83
2017,01,18,00,08,988.79
2017,01,18,00,09,988.86
2017,01,18,00,10,988.86
2017,01,18,00,11,988.89
2017,01,18,00,12,988.93
2017,01,18,00,13,988.93
2017,01,18,00,14,988.83
2017,01,18,00,15,988.83
2017,01,18,00,16,988.76
2017,01,18,00,17,988.79
2017,01,18,00,18,988.76
2017,01,18,00,19,988.69
2017,01,18,00,20,988.69
2017,01,18,00,21,988.59
2017,01,18,00,22,988.49
2017,01,18,00,23,988.52
2017,01,18,00,24,988.52
2017,01,18,00,25,988.49
2017,01,18,00,26,988.49
2017,01,18,00,27,988.55
2017,01,18,00,28,988.55
2017,01,18,00,29,988.59
2017,01,18,00,30,988.69
2017,01,18,00,31,988.66
2017,01,18,00,32,988.69
2017,01,18,00,33,988.72
2017,01,18,00,34,988.76
2017,01,18,00,35,988.79
2017,01,18,00,36,988.79
2017,01,18,00,37,988.79
2017,01,18,00,38,988.93
2017,01,18,00,39,989.00
2017,01,18,00,40,989.03
2017,01,18,00,41,989.00
2017,01,18,00,42,989.03
2017,01,18,00,43,989.03
2017,01,18,00,44,989.06
2017,01,18,00,45,989.06
2017,01,18,00,46,989.06
2017,01,18,00,47,989.13
2017,01,18,00,48,989.16
2017,01,18,00,49,989.10
2017,01,18,00,50,989.06
2017,01,18,00,51,989.03
2017,01,18,00,52,989.00
2017,01,18,00,53,988.93
2017,01,18,00,54,989.06
2017,01,18,00,55,989.13
2017,01,18,00,56,989.10
2017,01,18,00,57,989.13
2017,01,18,00,58,989.16
2017,01,18,00,59,989.20
2017,01,18,01,00,989.16
2017,01,18,01,01,989.20
2017,01,18,01,02,989.23
2017,01,18,01,03,989.23
2017,01,18,01,04,989.30
2017,01,18,01,05,989.27
2017,01,18,01,06,989.30
2017,01,18,01,07,989.30
2017,01,18,01,08,989.20
2017,01,18,01,09,989.23
2017,01,18,01,10,989.23
2017,01,18,01,11,989.23
2017,01,18,01,12,989.20
2017,01,18,01,13,989.23
2017,01,18,01,14,989.27
2017,01,18,01,15,989.27
2017,01,18,01,16,989.23
2017,01,18,01,17,989.30
2017,01,18,01,18,989.22
2017,01,18,01,19,989.06
2017,01,18,01,20,989.13
2017,01,18,01,21,989.16
2017,01,18,01,22,989.20
2017,01,18,01,23,989.23
2017,01,18,01,24,989.16
2017,01,18,01,25,989.13
2017,01,18,01,26,989.20
2017,01,18,01,27,989.16
2017,01,18,01,28,989.16
2017,01,18,01,29,989.20
2017,01,18,01,30,989.20
2017,01,18,01,31,989.20
2017,01,18,01,32,989.16
2017,01,18,01,33,989.16
2017,01,18,01,34,989.23
2017,01,18,01,35,989.23
2017,01,18,01,36,989.23
2017,01,18,01,37,989.23
2017,01,18,01,38,989.23
2017,01,18,01,39,989.27
2017,01,18,01,40,989.23
2017,01,18,01,41,989.23
2017,01,18,01,42,989.27
2017,01,18,01,43,989.27
2017,01,18,01,44,989.30
2017,01,18,01,45,989.30
2017,01,18,01,46,989.33
2017,01,18,01,47,989.37
2017,01,18,01,48,989.44
2017,01,18,01,49,989.37
2017,01,18,01,50,989.30
2017,01,18,01,51,989.27
2017,01,18,01,52,989.27
2017,01,18,01,53,989.33
2017,01,18,01,54,989.44
2017,01,18,01,55,989.44
2017,01,18,01,56,989.37
2017,01,18,01,57,989.40
2017,01,18,01,58,989.37
2017,01,18,01,59,989.37
2017,01,18,02,00,989.37
2017,01,18,02,01,989.37
2017,01,18,02,02,989.40
2017,01,18,02,03,989.33
2017,01,18,02,04,989.37
2017,01,18,02,05,989.33
2017,01,18,02,06,989.40
2017,01,18,02,07,989.33
2017,01,18,02,08,989.30
2017,01,18,02,09,989.33
2017,01,18,02,10,989.30
2017,01,18,02,11,989.30
2017,01,18,02,12,989.33
2017,01,18,02,13,989.40
2017,01,18,02,14,989.33
2017,01,18,02,15,989.40
2017,01,18,02,16,989.27
2017,01,18,02,17,989.37
2017,01,18,02,18,989.37
2017,01,18,02,19,989.33
2017,01,18,02,20,989.44
2017,01,18,02,21,989.54
2017,01,18,02,22,989.44
2017,01,18,02,23,989.44
2017,01,18,02,24,989.44
2017,01,18,02,25,989.33
2017,01,18,02,26,989.44
2017,01,18,02,27,989.40
2017,01,18,02,28,989.44
2017,01,18,02,29,989.44
2017,01,18,02,30,989.47
2017,01,18,02,31,989.47
2017,01,18,02,32,989.47
2017,01,18,02,33,989.47
2017,01,18,02,34,989.44
2017,01,18,02,35,989.37
2017,01,18,02,36,989.44
2017,01,18,02,37,989.47
2017,01,18,02,38,989.44
2017,01,18,02,39,989.40
2017,01,18,02,40,989.44
2017,01,18,02,41,989.44
2017,01,18,02,42,989.33
2017,01,18,02,43,989.33
2017,01,18,02,44,989.30
2017,01,18,02,45,989.23
2017,01,18,02,46,989.30
2017,01,18,02,47,989.30
2017,01,18,02,48,989.27
2017,01,18,02,49,989.30
2017,01,18,02,50,989.33
2017,01,18,02,51,989.30
2017,01,18,02,52,989.27
2017,01,18,02,53,989.27
2017,01,18,02,54,989.20
2017,01,18,02,55,989.20
2017,01,18,02,56,989.23
2017,01,18,02,57,989.20
2017,01,18,02,58,989.20
2017,01,18,02,59,989.23
2017,01,18,03,00,989.23
2017,01,18,03,01,989.20
2017,01,18,03,02,989.16
2017,01,18,03,03,989.20
2017,01,18,03,04,989.13
2017,01,18,03,05,989.20
2017,01,18,03,06,989.16
2017,01,18,03,07,989.23
2017,01,18,03,08,989.23
2017,01,18,03,09,989.20
2017,01,18,03,10,989.13
2017,01,18,03,11,989.06
2017,01,18,03,12,989.06
2017,01,18,03,13,989.13
2017,01,18,03,14,989.06
2017,01,18,03,15,989.06
2017,01,18,03,16,989.06
2017,01,18,03,17,989.00
2017,01,18,03,18,989.00
2017,01,18,03,19,989.00
2017,01,18,03,20,989.00
2017,01,18,03,21,988.86
2017,01,18,03,22,988.93
2017,01,18,03,23,988.93
2017,01,18,03,24,988.93
2017,01,18,03,25,988.86
2017,01,18,03,26,988.89
2017,01,18,03,27,988.86
2017,01,18,03,28,988.86
2017,01,18,03,29,988.89
2017,01,18,03,30,988.86
2017,01,18,03,31,988.86
2017,01,18,03,32,988.79
2017,01,18,03,33,988.86
2017,01,18,03,34,988.83
2017,01,18,03,35,988.86
2017,01,18,03,36,988.86
2017,01,18,03,37,988.86
2017,01,18,03,38,988.86
2017,01,18,03,39,988.79
2017,01,18,03,40,988.83
2017,01,18,03,41,988.76
2017,01,18,03,42,988.72
2017,01,18,03,43,988.76
2017,01,18,03,44,988.69
2017,01,18,03,45,988.62
2017,01,18,03,46,988.66
2017,01,18,03,47,988.62
2017,01,18,03,48,988.55
2017,01,18,03,49,988.52
2017,01,18,03,50,988.55
2017,01,18,03,51,988.55
2017,01,18,03,52,988.59
2017,01,18,03,53,988.62
2017,01,18,03,54,988.62
2017,01,18,03,55,988.55
2017,01,18,03,56,988.52
2017,01,18,03,57,988.55
2017,01,18,03,58,988.55
2017,01,18,03,59,988.49
2017,01,18,04,00,988.45
2017,01,18,04,01,988.49
2017,01,18,04,02,988.42
2017,01,18,04,03,988.42
2017,01,18,04,04,988.45
2017,01,18,04,05,988.45
2017,01,18,04,06,988.42
2017,01,18,04,07,988.45
2017,01,18,04,08,988.45
2017,01,18,04,09,988.42
2017,01,18,04,10,988.35
2017,01,18,04,11,988.42
2017,01,18,04,12,988.39
2017,01,18,04,13,988.35
2017,01,18,04,14,988.39
2017,01,18,04,15,988.39
2017,01,18,04,16,988.42
2017,01,18,04,17,988.39
2017,01,18,04,18,988.32
2017,01,18,04,19,988.32
2017,01,18,04,20,988.35
2017,01,18,04,21,988.32
2017,01,18,04,22,988.39
2017,01,18,04,23,988.28
2017,01,18,04,24,988.32
2017,01,18,04,25,988.28
2017,01,18,04,26,988.25
2017,01,18,04,27,988.25
2017,01,18,04,28,988.32
2017,01,18,04,29,988.32
2017,01,18,04,30,988.32
2017,01,18,04,31,988.28
2017,01,18,04,32,988.22
2017,01,18,04,33,988.22
2017,01,18,04,34,988.22
2017,01,18,04,35,988.18
2017,01,18,04,36,988.18
2017,01,18,04,37,988.15
2017,01,18,04,38,988.11
2017,01,18,04,39,988.11
2017,01,18,04,40,988.28
2017,01,18,04,41,988.18
2017,01,18,04,42,988.22
2017,01,18,04,43,988.18
2017,01,18,04,44,988.11
2017,01,18,04,45,988.15
2017,01,18,04,46,988.15
2017,01,18,04,47,988.11
2017,01,18,04,48,988.05
2017,01,18,04,49,988.11
2017,01,18,04,50,988.01
2017,01,18,04,51,988.05
2017,01,18,04,52,988.11
2017,01,18,04,53,988.08
2017,01,18,04,54,988.08
2017,01,18,04,55,988.05
2017,01,18,04,56,988.05
2017,01,18,04,57,988.01
2017,01,18,04,58,988.11
2017,01,18,04,59,988.05
2017,01,18,05,00,988.05
2017,01,18,05,01,988.08
2017,01,18,05,02,988.15
2017,01,18,05,03,988.18
2017,01,18,05,04,988.18
2017,01,18,05,05,988.11
2017,01,18,05,06,988.17
2017,01,18,05,07,988.05
2017,01,18,05,08,987.98
2017,01,18,05,09,987.95
2017,01,18,05,10,987.98
2017,01,18,05,11,987.91
2017,01,18,05,12,987.95
2017,01,18,05,13,987.88
2017,01,18,05,14,987.98
2017,01,18,05,15,987.98
2017,01,18,05,16,987.98
2017,01,18,05,17,988.01
2017,01,18,05,18,987.95
2017,01,18,05,19,987.95
2017,01,18,05,20,987.91
2017,01,18,05,21,987.95
2017,01,18,05,22,988.01
2017,01,18,05,23,987.95
2017,01,18,05,24,988.01
2017,01,18,05,25,988.01
2017,01,18,05,26,987.88
2017,01,18,05,27,987.88
2017,01,18,05,28,987.88
2017,01,18,05,29,988.05
2017,01,18,05,30,987.88
2017,01,18,05,31,987.91
2017,01,18,05,32,987.95
2017,01,18,05,33,987.88
2017,01,18,05,34,987.88
2017,01,18,05,35,987.91
2017,01,18,05,36,987.91
2017,01,18,05,37,987.91
2017,01,18,05,38,987.98
2017,01,18,05,39,987.98
2017,01,18,05,40,987.91
2017,01,18,05,41,987.84
2017,01,18,05,42,987.78
2017,01,18,05,43,987.74
2017,01,18,05,44,987.74
2017,01,18,05,45,987.78
2017,01,18,05,46,987.74
2017,01,18,05,47,987.74
2017,01,18,05,48,987.78
2017,01,18,05,49,987.74
2017,01,18,05,50,987.71
2017,01,18,05,51,987.67
2017,01,18,05,52,987.74
2017,01,18,05,53,987.67
2017,01,18,05,54,987.64
2017,01,18,05,55,987.64
2017,01,18,05,56,987.64
2017,01,18,05,57,987.57
2017,01,18,05,58,987.64
2017,01,18,05,59,987.78
2017,01,18,06,00,987.78
2017,01,18,06,01,987.81
2017,01,18,06,02,987.71
2017,01,18,06,03,987.67
2017,01,18,06,04,987.78
2017,01,18,06,05,987.78
2017,01,18,06,06,987.71
2017,01,18,06,07,987.64
2017,01,18,06,08,987.71
2017,01,18,06,09,987.61
2017,01,18,06,10,987.64
2017,01,18,06,11,987.61
2017,01,18,06,12,987.61
2017,01,18,06,13,987.61
2017,01,18,06,14,987.61
2017,01,18,06,15,987.44
2017,01,18,06,16,987.51
2017,01,18,06,17,987.51
2017,01,18,06,18,987.54
2017,01,18,06,19,987.51
2017,01,18,06,20,987.51
2017,01,18,06,21,987.51
2017,01,18,06,22,987.61
2017,01,18,06,23,987.57
2017,01,18,06,24,987.44
2017,01,18,06,25,987.44
2017,01,18,06,26,987.40
2017,01,18,06,27,987.47
2017,01,18,06,28,987.34
2017,01,18,06,29,987.51
2017,01,18,06,30,987.34
2017,01,18,06,31,987.40
2017,01,18,06,32,987.47
2017,01,18,06,33,987.54
2017,01,18,06,34,987.57
2017,01,18,06,35,987.47
2017,01,18,06,36,987.37
2017,01,18,06,37,987.47
2017,01,18,06,38,987.44
2017,01,18,06,39,987.40
2017,01,18,06,40,987.56
2017,01,18,06,41,987.40
2017,01,18,06,42,987.44
2017,01,18,06,43,987.37
2017,01,18,06,44,987.37
2017,01,18,06,45,987.37
2017,01,18,06,46,987.30
2017,01,18,06,47,987.27
2017,01,18,06,48,987.27
2017,01,18,06,49,987.34
2017,01,18,06,50,987.20
2017,01,18,06,51,987.23
2017,01,18,06,52,987.10
2017,01,18,06,53,987.06
2017,01,18,06,54,987.06
2017,01,18,06,55,987.06
2017,01,18,06,56,986.96
2017,01,18,06,57,987.03
2017,01,18,06,58,987.00
2017,01,18,06,59,987.10
2017,01,18,07,00,986.90
2017,01,18,07,01,986.83
2017,01,18,07,02,986.73
2017,01,18,07,03,986.79
2017,01,18,07,04,986.73
2017,01,18,07,05,986.76
2017,01,18,07,06,986.79
2017,01,18,07,07,986.79
2017,01,18,07,08,986.93
2017,01,18,07,09,986.93
2017,01,18,07,10,986.86
2017,01,18,07,11,986.83
2017,01,18,07,12,986.86
2017,01,18,07,13,986.86
2017,01,18,07,14,986.79
2017,01,18,07,15,986.76
2017,01,18,07,16,986.76
2017,01,18,07,17,986.79
2017,01,18,07,18,986.73
2017,01,18,07,19,986.69
2017,01,18,07,20,986.62
2017,01,18,07,21,986.66
2017,01,18,07,22,986.62
2017,01,18,07,23,986.59
2017,01,18,07,24,986.52
2017,01,18,07,25,986.56
2017,01,18,07,26,986.56
2017,01,18,07,27,986.56
2017,01,18,07,28,986.52
2017,01,18,07,29,986.52
2017,01,18,07,30,986.52
2017,01,18,07,31,986.49
2017,01,18,07,32,986.35
2017,01,18,07,33,986.39
2017,01,18,07,34,986.32
2017,01,18,07,35,986.35
2017,01,18,07,36,986.25
2017,01,18,07,37,986.29
2017,01,18,07,38,986.25
2017,01,18,07,39,986.22
2017,01,18,07,40,986.22
2017,01,18,07,41,986.22
2017,01,18,07,42,986.18
2017,01,18,07,43,986.22
2017,01,18,07,44,986.22
2017,01,18,07,45,986.22
2017,01,18,07,46,986.22
2017,01,18,07,47,986.18
2017,01,18,07,48,986.15
2017,01,18,07,49,986.15
2017,01,18,07,50,986.12
2017,01,18,07,51,986.15
2017,01,18,07,52,986.08
2017,01,18,07,53,986.12
2017,01,18,07,54,986.05
2017,01,18,07,55,986.05
2017,01,18,07,56,985.95
2017,01,18,07,57,986.02
2017,01,18,07,58,985.98
2017,01,18,07,59,985.98
2017,01,18,08,00,986.02
2017,01,18,08,01,986.02
2017,01,18,08,02,985.98
2017,01,18,08,03,985.95
2017,01,18,08,04,985.91
2017,01,18,08,05,985.98
2017,01,18,08,06,985.95
2017,01,18,08,07,985.88
2017,01,18,08,08,985.85
2017,01,18,08,09,985.81
2017,01,18,08,10,985.81
2017,01,18,08,11,985.85
2017,01,18,08,12,985.74
2017,01,18,08,13,985.71
2017,01,18,08,14,985.74
2017,01,18,08,15,985.74
2017,01,18,08,16,985.71
2017,01,18,08,17,985.71
2017,01,18,08,18,985.71
2017,01,18,08,19,985.64
2017,01,18,08,20,985.68
2017,01,18,08,21,985.64
2017,01,18,08,22,985.57
2017,01,18,08,23,985.51
2017,01,18,08,24,985.54
2017,01,18,08,25,985.54
2017,01,18,08,26,985.51
2017,01,18,08,27,985.51
2017,01,18,08,28,985.47
2017,01,18,08,29,985.44
2017,01,18,08,30,985.30
2017,01,18,08,31,985.47
2017,01,18,08,32,985.37
2017,01,18,08,33,985.37
2017,01,18,08,34,985.44
2017,01,18,08,35,985.41
2017,01,18,08,36,985.27
2017,01,18,08,37,985.34
2017,01,18,08,38,985.37
2017,01,18,08,39,985.27
2017,01,18,08,40,985.24
2017,01,18,08,41,985.20
2017,01,18,08,42,985.27
2017,01,18,08,43,985.30
2017,01,18,08,44,985.13
2017,01,18,08,45,985.13
2017,01,18,08,46,985.07
2017,01,18,08,47,985.10
2017,01,18,08,48,985.07
2017,01,18,08,49,985.00
2017,01,18,08,50,985.12
2017,01,18,08,51,985.10
2017,01,18,08,52,985.03
2017,01,18,08,53,984.97
2017,01,18,08,54,985.00
2017,01,18,08,55,985.07
2017,01,18,08,56,985.00
2017,01,18,08,57,985.03
2017,01,18,08,58,985.03
2017,01,18,08,59,985.10
2017,01,18,09,00,984.97
2017,01,18,09,01,985.16
2017,01,18,09,02,985.13
2017,01,18,09,03,984.98
2017,01,18,09,04,985.03
2017,01,18,09,05,984.97
2017,01,18,09,06,985.00
2017,01,18,09,07,985.03
2017,01,18,09,08,985.00
2017,01,18,09,09,984.93
2017,01,18,09,10,984.93
2017,01,18,09,11,984.97
2017,01,18,09,12,984.90
2017,01,18,09,13,984.90
2017,01,18,09,14,984.93
2017,01,18,09,15,984.93
2017,01,18,09,16,984.93
2017,01,18,09,17,985.00
2017,01,18,09,18,985.00
2017,01,18,09,19,985.00
2017,01,18,09,20,985.00
2017,01,18,09,21,984.93
2017,01,18,09,22,984.97
2017,01,18,09,23,984.86
2017,01,18,09,24,984.83
2017,01,18,09,25,984.83
2017,01,18,09,26,984.76
2017,01,18,09,27,984.73
2017,01,18,09,28,984.66
2017,01,18,09,29,984.59
2017,01,18,09,30,984.53
2017,01,18,09,31,984.46
2017,01,18,09,32,984.39
2017,01,18,09,33,984.42
2017,01,18,09,34,984.39
2017,01,18,09,35,984.36
2017,01,18,09,36,984.39
2017,01,18,09,37,984.42
2017,01,18,09,38,984.42
2017,01,18,09,39,984.32
2017,01,18,09,40,984.29
2017,01,18,09,41,984.32
2017,01,18,09,42,984.46
2017,01,18,09,43,984.39
2017,01,18,09,44,984.39
2017,01,18,09,45,984.39
2017,01,18,09,46,984.36
2017,01,18,09,47,984.29
2017,01,18,09,48,984.19
2017,01,18,09,49,984.19
2017,01,18,09,50,984.22
2017,01,18,09,51,984.29
2017,01,18,09,52,984.29
2017,01,18,09,53,984.36
2017,01,18,09,54,984.25
2017,01,18,09,55,984.25
2017,01,18,09,56,984.32
2017,01,18,09,57,984.25
2017,01,18,09,58,984.22
2017,01,18,09,59,984.15
2017,01,18,10,00,984.12
2017,01,18,10,01,983.96
2017,01,18,10,02,983.95
2017,01,18,10,03,983.85
2017,01,18,10,04,983.85
2017,01,18,10,05,983.81
2017,01,18,10,06,983.75
2017,01,18,10,07,983.64
2017,01,18,10,08,983.61
2017,01,18,10,09,983.61
2017,01,18,10,10,983.51
2017,01,18,10,11,983.54
2017,01,18,10,12,983.58
2017,01,18,10,13,983.61
2017,01,18,10,14,983.64
2017,01,18,10,15,983.64
2017,01,18,10,16,983.64
2017,01,18,10,17,983.68
2017,01,18,10,18,983.71
2017,01,18,10,19,983.75
2017,01,18,10,20,983.75
2017,01,18,10,21,983.78
2017,01,18,10,22,983.78
2017,01,18,10,23,983.88
2017,01,18,10,24,983.88
2017,01,18,10,25,983.88
2017,01,18,10,26,983.95
2017,01,18,10,27,983.98
2017,01,18,10,28,983.95
2017,01,18,10,29,983.98
2017,01,18,10,30,983.95
2017,01,18,10,31,983.98
2017,01,18,10,32,983.95
2017,01,18,10,33,983.92
2017,01,18,10,34,983.92
2017,01,18,10,35,984.02
2017,01,18,10,36,984.05
2017,01,18,10,37,983.98
2017,01,18,10,38,983.98
2017,01,18,10,39,984.02
2017,01,18,10,40,984.02
2017,01,18,10,41,984.05
2017,01,18,10,42,983.95
2017,01,18,10,43,984.05
2017,01,18,10,44,984.05
2017,01,18,10,45,984.02
2017,01,18,10,46,984.12
2017,01,18,10,47,984.02
2017,01,18,10,48,984.05
2017,01,18,10,49,984.05
2017,01,18,10,50,984.02
2017,01,18,10,51,983.85
2017,01,18,10,52,983.98
2017,01,18,10,53,983.92
2017,01,18,10,54,983.95
2017,01,18,10,55,983.88
2017,01,18,10,56,983.92
2017,01,18,10,57,983.85
2017,01,18,10,58,983.81
2017,01,18,10,59,983.92
2017,01,18,11,00,983.81
2017,01,18,11,01,983.85
2017,01,18,11,02,983.85
2017,01,18,11,03,983.88
2017,01,18,11,04,983.85
2017,01,18,11,05,983.88
2017,01,18,11,06,983.85
2017,01,18,11,07,983.88
2017,01,18,11,08,983.75
2017,01,18,11,09,983.78
2017,01,18,11,10,983.78
2017,01,18,11,11,983.75
2017,01,18,11,12,983.85
2017,01,18,11,13,983.88
2017,01,18,11,14,983.88
2017,01,18,11,15,983.95
2017,01,18,11,16,983.92
2017,01,18,11,17,983.95
2017,01,18,11,18,983.92
2017,01,18,11,19,983.88
2017,01,18,11,20,983.88
2017,01,18,11,21,983.92
2017,01,18,11,22,983.98
2017,01,18,11,23,983.95
2017,01,18,11,24,983.88
2017,01,18,11,25,983.95
2017,01,18,11,26,983.88
2017,01,18,11,27,983.92
2017,01,18,11,28,983.88
2017,01,18,11,29,983.92
2017,01,18,11,30,983.88
2017,01,18,11,31,983.81
2017,01,18,11,32,984.01
2017,01,18,11,33,983.95
2017,01,18,11,34,983.92
2017,01,18,11,35,983.98
2017,01,18,11,36,983.92
2017,01,18,11,37,983.85
2017,01,18,11,38,983.92
2017,01,18,11,39,983.95
2017,01,18,11,40,984.02
2017,01,18,11,41,983.98
2017,01,18,11,42,983.92
2017,01,18,11,43,983.98
2017,01,18,11,44,983.95
2017,01,18,11,45,983.95
2017,01,18,11,46,983.85
2017,01,18,11,47,983.92
2017,01,18,11,48,983.92
2017,01,18,11,49,983.95
2017,01,18,11,50,983.98
2017,01,18,11,51,984.08
2017,01,18,11,52,984.08
2017,01,18,11,53,984.02
2017,01,18,11,54,984.12
2017,01,18,11,55,984.12
2017,01,18,11,56,984.08
2017,01,18,11,57,983.93
2017,01,18,11,58,983.98
2017,01,18,11,59,984.05
2017,01,18,12,00,984.05
2017,01,18,12,01,984.12
2017,01,18,12,02,984.05
2017,01,18,12,03,984.02
2017,01,18,12,04,984.02
2017,01,18,12,05,984.08
2017,01,18,12,06,984.08
2017,01,18,12,07,984.19
2017,01,18,12,08,984.15
2017,01,18,12,09,984.12
2017,01,18,12,10,984.15
2017,01,18,12,11,984.08
2017,01,18,12,12,984.22
2017,01,18,12,13,984.25
2017,01,18,12,14,984.08
2017,01,18,12,15,984.15
2017,01,18,12,16,984.19
2017,01,18,12,17,984.29
2017,01,18,12,18,984.36
2017,01,18,12,19,984.32
2017,01,18,12,20,984.32
2017,01,18,12,21,984.32
2017,01,18,12,22,984.25
2017,01,18,12,23,984.32
2017,01,18,12,24,984.29
2017,01,18,12,25,984.25
2017,01,18,12,26,984.25
2017,01,18,12,27,984.32
2017,01,18,12,28,984.39
2017,01,18,12,29,984.42
2017,01,18,12,30,984.46
2017,01,18,12,31,984.56
2017,01,18,12,32,984.53
2017,01,18,12,33,984.49
2017,01,18,12,34,984.49
2017,01,18,12,35,984.46
2017,01,18,12,36,984.49
2017,01,18,12,37,984.46
2017,01,18,12,38,984.49
2017,01,18,12,39,984.49
2017,01,18,12,40,984.49
2017,01,18,12,41,984.42
2017,01,18,12,42,984.46
2017,01,18,12,43,984.36
2017,01,18,12,44,984.46
2017,01,18,12,45,984.49
2017,01,18,12,46,984.53
2017,01,18,12,47,984.49
2017,01,18,12,48,984.46
2017,01,18,12,49,984.42
2017,01,18,12,50,984.53
2017,01,18,12,51,984.56
2017,01,18,12,52,984.49
2017,01,18,12,53,984.56
2017,01,18,12,54,984.53
2017,01,18,12,55,984.53
2017,01,18,12,56,984.53
2017,01,18,12,57,984.49
2017,01,18,12,58,984.56
2017,01,18,12,59,984.42
2017,01,18,13,00,984.53
2017,01,18,13,01,984.49
2017,01,18,13,02,984.42
2017,01,18,13,03,984.39
2017,01,18,13,04,984.56
2017,01,18,13,05,984.59
2017,01,18,13,06,984.59
2017,01,18,13,07,984.59
2017,01,18,13,08,984.76
2017,01,18,13,09,984.69
2017,01,18,13,10,984.76
2017,01,18,13,11,984.83
2017,01,18,13,12,984.83
2017,01,18,13,13,984.83
2017,01,18,13,14,984.83
2017,01,18,13,15,984.86
2017,01,18,13,16,984.86
2017,01,18,13,17,984.86
2017,01,18,13,18,984.90
2017,01,18,13,19,984.86
2017,01,18,13,20,984.90
2017,01,18,13,21,984.83
2017,01,18,13,22,984.90
2017,01,18,13,23,984.86
2017,01,18,13,24,984.86
2017,01,18,13,25,984.86
2017,01,18,13,26,985.06
2017,01,18,13,27,985.07
2017,01,18,13,28,985.07
2017,01,18,13,29,985.13
2017,01,18,13,30,985.10
2017,01,18,13,31,985.07
2017,01,18,13,32,985.07
2017,01,18,13,33,985.10
2017,01,18,13,34,985.24
2017,01,18,13,35,985.24
2017,01,18,13,36,985.34
2017,01,18,13,37,985.30
2017,01,18,13,38,985.34
2017,01,18,13,39,985.37
2017,01,18,13,40,985.41
2017,01,18,13,41,985.47
2017,01,18,13,42,985.37
2017,01,18,13,43,985.34
2017,01,18,13,44,985.47
2017,01,18,13,45,985.41
2017,01,18,13,46,985.37
2017,01,18,13,47,985.41
2017,01,18,13,48,985.44
2017,01,18,13,49,985.34
2017,01,18,13,50,985.34
2017,01,18,13,51,985.34
2017,01,18,13,52,985.41
2017,01,18,13,53,985.30
2017,01,18,13,54,985.41
2017,01,18,13,55,985.30
2017,01,18,13,56,985.37
2017,01,18,13,57,985.37
2017,01,18,13,58,985.41
2017,01,18,13,59,985.30
2017,01,18,14,00,985.30
2017,01,18,14,01,985.34
2017,01,18,14,02,985.17
2017,01,18,14,03,985.24
2017,01,18,14,04,985.20
2017,01,18,14,05,985.20
2017,01,18,14,06,985.30
2017,01,18,14,07,985.20
2017,01,18,14,08,985.20
2017,01,18,14,09,985.36
2017,01,18,14,10,985.30
2017,01,18,14,11,985.34
2017,01,18,14,12,985.37
2017,01,18,14,13,985.30
2017,01,18,14,14,985.41
2017,01,18,14,15,985.34
2017,01,18,14,16,985.30
2017,01,18,14,17,985.34
2017,01,18,14,18,985.37
2017,01,18,14,19,985.41
2017,01,18,14,20,985.37
2017,01,18,14,21,985.34
2017,01,18,14,22,985.37
2017,01,18,14,23,985.37
2017,01,18,14,24,985.44
2017,01,18,14,25,985.34
2017,01,18,14,26,985.37
2017,01,18,14,27,985.37
2017,01,18,14,28,985.47
2017,01,18,14,29,985.51
2017,01,18,14,30,985.57
2017,01,18,14,31,985.57
2017,01,18,14,32,985.54
2017,01,18,14,33,985.67
2017,01,18,14,34,985.74
2017,01,18,14,35,985.71
2017,01,18,14,36,985.68
2017,01,18,14,37,985.71
2017,01,18,14,38,985.74
2017,01,18,14,39,985.74
2017,01,18,14,40,985.71
2017,01,18,14,41,985.71
2017,01,18,14,42,985.68
2017,01,18,14,43,985.78
2017,01,18,14,44,985.81
2017,01,18,14,45,985.85
2017,01,18,14,46,985.88
2017,01,18,14,47,985.88
2017,01,18,14,48,985.95
2017,01,18,14,49,985.95
2017,01,18,14,50,985.95
2017,01,18,14,51,985.91
2017,01,18,14,52,985.85
2017,01,18,14,53,985.81
2017,01,18,14,54,985.85
2017,01,18,14,55,985.81
2017,01,18,14,56,985.85
2017,01,18,14,57,985.81
2017,01,18,14,58,985.85
2017,01,18,14,59,985.81
2017,01,18,15,00,985.81
2017,01,18,15,01,985.78
2017,01,18,15,02,985.81
2017,01,18,15,03,985.81
2017,01,18,15,04,985.78
2017,01,18,15,05,985.78
2017,01,18,15,06,985.81
2017,01,18,15,07,985.74
2017,01,18,15,08,985.74
2017,01,18,15,09,985.68
2017,01,18,15,10,985.68
2017,01,18,15,11,985.71
2017,01,18,15,12,985.68
2017,01,18,15,13,985.71
2017,01,18,15,14,985.71
2017,01,18,15,15,985.81
2017,01,18,15,16,985.81
2017,01,18,15,17,985.91
2017,01,18,15,18,985.88
2017,01,18,15,19,985.98
2017,01,18,15,20,985.98
2017,01,18,15,21,986.05
2017,01,18,15,22,986.12
2017,01,18,15,23,986.15
2017,01,18,15,24,986.18
2017,01,18,15,25,986.25
2017,01,18,15,26,986.25
2017,01,18,15,27,986.32
2017,01,18,15,28,986.35
2017,01,18,15,29,986.39
2017,01,18,15,30,986.42
2017,01,18,15,31,986.32
2017,01,18,15,32,986.39
2017,01,18,15,33,986.46
2017,01,18,15,34,986.39
2017,01,18,15,35,986.42
2017,01,18,15,36,986.42
2017,01,18,15,37,986.32
2017,01,18,15,38,986.29
2017,01,18,15,39,986.39
2017,01,18,15,40,986.39
2017,01,18,15,41,986.42
2017,01,18,15,42,986.49
2017,01,18,15,43,986.42
2017,01,18,15,44,986.52
2017,01,18,15,45,986.46
2017,01,18,15,46,986.52
2017,01,18,15,47,986.52
2017,01,18,15,48,986.52
2017,01,18,15,49,986.56
2017,01,18,15,50,986.56
2017,01,18,15,51,986.62
2017,01,18,15,52,986.66
2017,01,18,15,53,986.66
2017,01,18,15,54,986.59
2017,01,18,15,55,986.49
2017,01,18,15,56,986.49
2017,01,18,15,57,986.46
2017,01,18,15,58,986.49
2017,01,18,15,59,986.49
2017,01,18,16,00,986.59
2017,01,18,16,01,986.49
2017,01,18,16,02,986.46
2017,01,18,16,03,986.49
2017,01,18,16,04,986.42
2017,01,18,16,05,986.42
2017,01,18,16,06,986.46
2017,01,18,16,07,986.49
2017,01,18,16,08,986.52
2017,01,18,16,09,986.56
2017,01,18,16,10,986.49
2017,01,18,16,11,986.52
2017,01,18,16,12,986.49
2017,01,18,16,13,986.56
2017,01,18,16,14,986.52
2017,01,18,16,15,986.49
2017,01,18,16,16,986.46
2017,01,18,16,17,986.39
2017,01,18,16,18,986.35
2017,01,18,16,19,986.39
2017,01,18,16,20,986.39
2017,01,18,16,21,986.39
2017,01,18,16,22,986.35
2017,01,18,16,23,986.35
2017,01,18,16,24,986.32
2017,01,18,16,25,986.32
2017,01,18,16,26,986.29
2017,01,18,16,27,986.39
2017,01,18,16,28,986.32
2017,01,18,16,29,986.29
2017,01,18,16,30,986.29
2017,01,18,16,31,986.25
2017,01,18,16,32,986.22
2017,01,18,16,33,986.18
2017,01,18,16,34,986.18
2017,01,18,16,35,986.25
2017,01,18,16,36,986.25